TimeEST,TemperatureF,Dew PointF,Humidity,Sea Level PressureIn,VisibilityMPH,Wind Direction,Wind SpeedMPH,Gust SpeedMPH,PrecipitationIn,Events,Conditions,WindDirDegrees,DateUTC
12:15 AM,32.5,24.8,73,30.03,10.0,Calm,Calm,-,N/A,,Overcast,0,2013-12-20 05:15:00
12:35 AM,32.5,24.8,73,30.03,10.0,Calm,Calm,-,N/A,,Overcast,0,2013-12-20 05:35:00
12:55 AM,32.7,25.0,73,30.04,10.0,Calm,Calm,-,N/A,,Overcast,0,2013-12-20 05:55:00
1:15 AM,32.9,24.6,72,30.03,10.0,Calm,Calm,-,N/A,,Overcast,0,2013-12-20 06:15:00
1:35 AM,32.7,24.6,72,30.04,10.0,Calm,Calm,-,N/A,,Overcast,0,2013-12-20 06:35:00
1:55 AM,32.9,24.8,72,30.05,10.0,Calm,Calm,-,N/A,,Overcast,0,2013-12-20 06:55:00
2:15 AM,32.0,24.8,75,30.06,10.0,Calm,Calm,-,N/A,,Overcast,0,2013-12-20 07:15:00
2:35 AM,32.0,24.8,75,30.05,10.0,Calm,Calm,-,N/A,,Overcast,0,2013-12-20 07:35:00
2:55 AM,31.5,24.8,76,30.05,10.0,Calm,Calm,-,N/A,,Overcast,0,2013-12-20 07:55:00
3:15 AM,31.5,24.8,76,30.04,10.0,ESE,3.5,-,N/A,,Overcast,120,2013-12-20 08:15:00
3:35 AM,31.3,25.2,78,30.03,10.0,Calm,Calm,-,N/A,,Overcast,0,2013-12-20 08:35:00
3:55 AM,31.1,25.0,78,30.03,7.0,Calm,Calm,-,N/A,,Overcast,0,2013-12-20 08:55:00
4:15 AM,31.5,25.2,78,30.02,10.0,Calm,Calm,-,N/A,,Overcast,0,2013-12-20 09:15:00
4:35 AM,31.6,25.2,77,30.02,10.0,Calm,Calm,-,N/A,,Overcast,0,2013-12-20 09:35:00
4:55 AM,31.1,25.3,79,30.01,7.0,Calm,Calm,-,N/A,,Overcast,0,2013-12-20 09:55:00
5:15 AM,31.1,25.3,79,30.00,7.0,Calm,Calm,-,N/A,,Overcast,0,2013-12-20 10:15:00
5:35 AM,31.1,25.3,79,30.00,7.0,Calm,Calm,-,N/A,Snow,Light Snow,0,2013-12-20 10:35:00
5:55 AM,30.7,25.5,81,30.00,3.0,Calm,Calm,-,N/A,Snow,Light Snow,0,2013-12-20 10:55:00
6:15 AM,30.2,26.1,85,29.99,2.5,Calm,Calm,-,N/A,Snow,Light Snow,0,2013-12-20 11:15:00
6:35 AM,30.6,26.6,85,29.99,4.0,Calm,Calm,-,N/A,Snow,Light Snow,0,2013-12-20 11:35:00
6:55 AM,30.6,26.4,85,29.98,3.0,Calm,Calm,-,N/A,Snow,Light Snow,0,2013-12-20 11:55:00
7:15 AM,30.6,26.6,85,29.99,2.0,Calm,Calm,-,N/A,Snow,Light Snow,0,2013-12-20 12:15:00
7:35 AM,30.6,27.0,86,29.98,1.2,Calm,Calm,-,N/A,Snow,Light Snow,0,2013-12-20 12:35:00
7:55 AM,30.2,26.8,87,29.98,1.2,Calm,Calm,-,N/A,Snow,Light Snow,0,2013-12-20 12:55:00
8:15 AM,30.4,27.0,87,29.96,1.0,Calm,Calm,-,N/A,Snow,Light Snow,0,2013-12-20 13:15:00
8:35 AM,30.4,27.1,88,29.96,1.0,Calm,Calm,-,N/A,Snow,Light Snow,0,2013-12-20 13:35:00
8:55 AM,30.6,27.3,88,29.95,0.8,Calm,Calm,-,N/A,Snow,Light Snow,0,2013-12-20 13:55:00
9:15 AM,31.5,28.2,88,29.95,0.8,Calm,Calm,-,N/A,Snow,Light Snow,0,2013-12-20 14:15:00
9:35 AM,32.0,28.8,88,29.94,1.2,Calm,Calm,-,N/A,Snow,Light Snow,0,2013-12-20 14:35:00
9:55 AM,32.0,28.9,88,29.93,2.0,SE,3.5,-,N/A,Snow,Light Snow,140,2013-12-20 14:55:00
10:15 AM,32.0,28.4,87,29.92,2.0,Calm,Calm,-,N/A,Snow,Light Snow,0,2013-12-20 15:15:00
10:35 AM,31.8,28.4,87,29.90,2.0,Calm,Calm,-,N/A,,Overcast,0,2013-12-20 15:35:00
10:55 AM,33.3,29.5,86,29.89,3.0,SSW,4.6,-,N/A,Snow,Light Snow,200,2013-12-20 15:55:00
11:15 AM,33.1,29.1,85,29.89,1.8,Calm,Calm,-,N/A,Snow,Light Snow,0,2013-12-20 16:15:00
11:35 AM,33.3,29.7,87,29.89,1.2,Calm,Calm,-,N/A,Snow,Light Snow,0,2013-12-20 16:35:00
11:55 AM,33.8,30.0,86,29.89,1.2,Calm,Calm,-,N/A,Snow,Light Snow,0,2013-12-20 16:55:00
12:15 PM,32.7,29.7,88,29.88,0.8,Calm,Calm,-,N/A,Snow,Light Snow,0,2013-12-20 17:15:00
12:35 PM,34.2,31.1,89,29.87,0.8,Calm,Calm,-,N/A,Snow,Light Snow,0,2013-12-20 17:35:00
12:55 PM,34.0,31.1,89,29.86,0.8,Calm,Calm,-,N/A,Snow,Light Snow,0,2013-12-20 17:55:00
1:15 PM,34.3,31.6,90,29.86,0.8,Calm,Calm,-,N/A,Snow,Light Snow,0,2013-12-20 18:15:00
1:35 PM,34.7,31.6,89,29.86,1.5,SSE,3.5,-,N/A,Snow,Light Snow,160,2013-12-20 18:35:00
1:55 PM,34.7,31.6,89,29.85,2.0,South,3.5,-,N/A,Snow,Light Snow,180,2013-12-20 18:55:00
2:15 PM,34.9,31.8,89,29.85,2.5,South,3.5,-,N/A,Rain,Light Rain,170,2013-12-20 19:15:00
2:35 PM,34.9,32.0,89,29.86,3.0,Calm,Calm,-,N/A,Rain,Light Rain,0,2013-12-20 19:35:00
2:55 PM,35.1,32.0,89,29.85,2.0,Calm,Calm,-,N/A,Rain,Light Rain,0,2013-12-20 19:55:00
3:15 PM,34.7,31.6,89,29.85,2.0,Calm,Calm,-,N/A,,Drizzle,0,2013-12-20 20:15:00
3:35 PM,34.0,31.1,89,29.86,0.2,Calm,Calm,-,N/A,,Light Drizzle,0,2013-12-20 20:35:00
3:55 PM,34.0,31.1,89,29.86,0.2,Calm,Calm,-,N/A,,Overcast,0,2013-12-20 20:55:00
4:15 PM,33.6,31.1,90,29.86,0.5,NNE,3.5,-,N/A,Snow,Light Snow,20,2013-12-20 21:15:00
4:35 PM,32.9,30.6,91,29.87,1.0,North,4.6,-,N/A,Snow,Light Snow,360,2013-12-20 21:35:00
4:55 PM,32.5,30.2,91,29.87,1.5,North,5.8,-,N/A,Snow,Light Snow,360,2013-12-20 21:55:00
5:15 PM,32.5,30.2,91,29.87,1.5,North,4.6,-,N/A,Snow,Light Snow,360,2013-12-20 22:15:00
5:35 PM,32.4,30.0,91,29.87,1.5,North,5.8,-,N/A,Snow,Light Snow,350,2013-12-20 22:35:00
5:55 PM,32.4,30.0,91,29.87,1.8,North,4.6,-,N/A,Snow,Light Snow,350,2013-12-20 22:55:00
6:15 PM,32.4,30.0,91,29.88,1.8,NNW,5.8,-,N/A,Snow,Light Snow,340,2013-12-20 23:15:00
6:35 PM,32.2,29.8,91,29.89,2.0,North,6.9,-,N/A,Snow,Light Snow,350,2013-12-20 23:35:00
6:55 PM,32.0,29.3,90,29.90,2.5,North,8.1,-,N/A,,Overcast,350,2013-12-20 23:55:00
7:15 PM,32.0,29.3,90,29.90,2.5,North,4.6,-,N/A,Snow,Light Snow,360,2013-12-21 00:15:00
7:35 PM,32.0,28.9,88,29.90,2.5,North,4.6,-,N/A,Snow,Light Snow,350,2013-12-21 00:35:00
7:55 PM,32.0,28.9,88,29.90,2.5,North,4.6,-,N/A,Snow,Light Snow,350,2013-12-21 00:55:00
8:15 PM,31.8,28.8,88,29.89,3.0,North,3.5,-,N/A,,Overcast,360,2013-12-21 01:15:00
8:35 PM,31.6,28.4,88,29.89,1.8,NNW,3.5,-,N/A,Snow,Light Snow,340,2013-12-21 01:35:00
8:55 PM,31.6,28.4,88,29.89,1.8,NNW,4.6,-,N/A,,Overcast,340,2013-12-21 01:55:00
9:15 PM,31.1,28.4,90,29.88,2.5,North,3.5,-,N/A,,Overcast,10,2013-12-21 02:15:00
9:35 PM,31.1,28.0,88,29.89,2.5,NNW,6.9,-,N/A,,Overcast,340,2013-12-21 02:35:00
9:55 PM,31.1,28.0,88,29.89,2.0,North,3.5,-,N/A,,Overcast,350,2013-12-21 02:55:00
10:15 PM,30.9,27.7,88,29.86,1.5,NNE,3.5,-,N/A,,Overcast,30,2013-12-21 03:15:00
10:35 PM,30.2,27.3,89,29.87,1.8,NNW,4.6,-,N/A,,Overcast,340,2013-12-21 03:35:00
10:55 PM,30.0,27.1,89,29.86,1.5,North,4.6,-,N/A,,Overcast,360,2013-12-21 03:55:00
11:15 PM,30.0,27.1,89,29.88,2.5,North,3.5,-,N/A,,Overcast,350,2013-12-21 04:15:00
11:35 PM,30.2,27.3,89,29.86,2.5,NE,3.5,-,N/A,,Overcast,40,2013-12-21 04:35:00
11:55 PM,29.7,26.6,88,29.86,2.0,Calm,Calm,-,N/A,,Overcast,0,2013-12-21 04:55:00